[[{"header":{"parameterUnit":"m.s-1","parameterCategory":1,"la1":30.2991,"la2":30.254,"lo1":-89.0895,"lo2":-89.0444,"dy":0.0017,"dx":0.0017,"nx":28,"ny":28,"refTime":"2026-01-05T09:00:00:Z","depth":0,"parameterNumber":2,"parameterNumberName":"U-component_of_WINDS"},"data":[0,0,0,0,0,0,0,0,0,0,0,0,0,0,0,0,0,0,0,0,0,0,0,0,0,0,0,0,0,0,0,0,0,0,0,0,0,0,0,0,0,0,0,0,0,0,0,0,0,0,0,0,0,0,0,0,0,0,1.1836,1.1836,0,1.1853,1.1853,1.1853,1.1788,1.1786,1.1785,1.1783,1.1799,1.1801,1.1803,0,0,0,0,0,0,0,0,0,0,0,0,0,1.1749,1.1751,1.1836,1.1836,1.1837,1.1853,1.1853,1.1854,1.1789,1.1786,1.1784,1.1782,1.1798,1.18,1.1803,0,0,0,0,0,0,0,0,0,0,0,0,0,1.1778,1.1751,1.1836,1.1806,1.1804,1.1853,1.1853,1.1854,1.1789,1.1786,1.1783,1.1781,1.1797,1.18,1.1803,1.1882,0,0,1.1814,1.1815,0,0,0,0,0,0,0,0,1.1777,1.1782,1.181,1.1808,1.1806,1.1816,1.1828,1.1863,1.179,1.1795,1.1783,1.1779,1.1806,1.1809,1.1818,1.1883,1.1883,1.1814,1.1816,1.1817,1.1818,0,0,0,0,0,0,0,1.1775,1.1781,1.1843,1.1811,1.1808,1.1792,1.1793,1.1835,1.1816,1.1794,1.1789,1.1792,1.1805,1.1815,1.1818,1.1883,1.1814,1.1817,1.1819,1.182,1.2017,1.202,0,0,0,0,0,0,1.1777,1.1779,1.1842,1.1843,1.1784,1.1796,1.1797,1.1815,1.1816,1.1813,1.1795,1.1789,1.1811,1.1814,1.1818,1.1912,1.1817,1.182,1.1822,1.2013,1.2017,1.2021,0,0,0,0,0,0,1.1775,1.1783,1.1841,1.181,1.1816,1.1801,1.1822,1.1817,1.1828,1.1817,1.1813,1.1809,1.1809,1.1814,1.1867,1.1912,1.1822,1.1825,1.201,1.2015,1.2019,1.2099,0,0,0,0,0,0,1.1773,1.1783,1.1812,1.1811,1.1818,1.189,1.1824,1.182,1.1834,1.1827,1.1829,1.1826,1.1807,1.1863,1.1871,1.1915,1.1828,1.2005,1.2012,1.2017,1.2092,1.2106,1.2117,0,0,0,0,0,1.177,1.1832,1.1813,1.1821,1.1854,1.1892,1.1896,1.1873,1.1838,1.1867,1.1861,1.1826,1.1906,1.1869,1.1877,1.1923,1.2002,1.201,1.2017,1.2086,1.2103,1.2117,0,0,0,0,0,0,1.1836,1.1831,1.181,1.1874,1.1885,1.1881,1.1917,1.1891,1.1911,1.1903,1.1874,1.1875,1.1934,1.1934,1.1893,1.2,1.1948,1.1957,1.1998,1.2014,1.2026,1.2025,1.183,0,0,0,0,0,1.1859,1.189,1.1884,1.1941,1.1948,1.1932,1.1948,1.193,1.1939,1.1942,1.194,1.195,1.1977,1.1996,1.202,1.2093,1.2093,1.2128,1.2141,1.2152,1.2159,1.22,1.2217,1.2045,1.2044,1.2044,0,0,1.1904,1.1906,1.1927,1.1955,1.196,1.1995,1.1936,1.1973,1.1999,1.1948,1.1999,1.1998,1.2007,1.2072,1.21,1.2073,1.2208,1.2161,1.2169,1.2171,1.221,1.2226,1.224,1.2049,1.2049,1.2048,0,0,1.2005,1.2009,1.2058,1.2066,1.2077,1.2067,1.2079,1.2081,1.2079,1.213,1.2094,1.2124,1.2171,1.218,1.2191,1.2301,1.2271,1.231,1.2376,1.2416,1.2429,1.2441,1.2482,1.2496,1.2318,1.2319,1.2319,0,1.2059,1.2109,1.2086,1.2128,1.2142,1.21,1.2151,1.216,1.2177,1.2188,1.2159,1.2221,1.2224,1.2291,1.2318,1.2328,1.2342,1.2309,1.243,1.2441,1.2452,1.249,1.2505,1.2323,1.2323,1.2322,1.2322,0,1.2177,1.2213,1.2252,1.2272,1.2291,1.2337,1.2322,1.2344,1.2326,1.232,1.2374,1.2377,1.2403,1.2418,1.2399,1.2484,1.2467,1.2435,1.2381,1.2473,1.2509,1.2523,1.233,1.2328,1.2327,1.2326,0,0,1.2315,1.2326,1.2341,1.2351,1.2362,1.2389,1.2435,1.2462,1.2482,1.2498,1.2535,1.2579,1.255,1.2563,1.2546,1.2581,1.2671,1.2544,1.2544,1.2568,1.2766,1.279,1.2807,1.2652,1.2655,1.2657,1.2765,0,1.2414,1.2492,1.2475,1.2552,1.2586,1.255,1.259,1.2602,1.2599,1.2628,1.2624,1.2656,1.2614,1.2622,1.2656,1.2653,1.271,1.2645,1.2687,1.2689,1.2685,1.2825,1.285,1.2952,1.2779,1.2781,1.2783,0,1.2539,1.2562,1.2643,1.2652,1.2666,1.2702,1.2727,1.2755,1.2769,1.2765,1.2782,1.2759,1.2806,1.2754,1.2819,1.2775,1.2792,1.2793,1.2797,1.2799,1.274,1.2831,1.2984,1.2999,1.2804,1.2802,1.2801,0,1.2632,1.2683,1.2739,1.2749,1.2761,1.2788,1.2794,1.2806,1.2824,1.2847,1.2859,1.2887,1.2902,1.2924,1.291,1.2874,1.2978,1.2924,1.2976,1.2976,1.2997,1.2996,1.3155,1.301,1.301,1.3009,1.3009,0,1.2744,1.2794,1.2781,1.2815,1.2873,1.2855,1.2912,1.2914,1.2926,1.296,1.2931,1.2964,1.2945,1.2977,1.2967,1.3023,1.3029,1.3028,1.3024,1.303,1.303,1.3039,1.3031,1.3013,1.3013,1.3012,1.3011,0,1.2855,1.2848,1.2907,1.2916,1.292,1.2962,1.297,1.3002,1.2999,1.3044,1.3053,1.3048,1.3085,1.3075,1.3114,1.3107,1.3179,1.3166,1.3174,1.3171,1.3223,1.3218,1.3392,1.3414,1.3256,1.3258,1.3259,0,1.2926,1.2965,1.298,1.3002,1.3011,1.3047,1.3067,1.3052,1.3074,1.3097,1.3127,1.3162,1.3189,1.325,1.325,1.3281,1.3269,1.3328,1.3273,1.3279,1.327,1.3267,1.3272,1.3338,1.334,1.3341,1.3343,0,1.3052,1.3049,1.3079,1.311,1.3136,1.3159,1.3179,1.3199,1.3187,1.3214,1.3252,1.3274,1.3316,1.3352,1.3381,1.3388,1.3364,1.3361,1.3374,1.3379,1.3382,1.3382,1.3203,1.3356,1.3355,1.3354,1.3353,1.3352,1.3145,1.3179,1.3197,1.3233,1.3248,1.3269,1.3301,1.3304,1.3337,1.3371,1.3361,1.3406,1.3423,1.346,1.3472,1.3507,1.3484,1.3504,1.3508,1.3513,1.352,1.3379,1.3512,1.3512,1.3512,1.3511,1.3511,0,1.327,1.3281,1.3315,1.3346,1.3376,1.3354,1.3377,1.3402,1.3443,1.3462,1.349,1.3537,1.3573,1.3578,1.3612,1.3639,1.3629,1.3649,1.3645,1.3648,1.3538,1.3523,1.3656,1.3656,1.3656,1.3656,1.3656,1.3656,1.3338,1.3396,1.3395,1.3461,1.3472,1.3516,1.3532,1.3552,1.3568,1.3621,1.3652,1.3656,1.367,1.3706,1.3739,1.3739,1.3753,1.3777,1.3773,1.367,1.3655,1.3641,1.3627,1.378,1.378,1.388,1.3881,1.3882]},{"header":{"parameterUnit":"m.s-1","parameterCategory":1,"la1":30.2991,"la2":30.254,"lo1":-89.0895,"lo2":-89.0444,"dy":0.0017,"dx":0.0017,"nx":28,"ny":28,"refTime":"2026-01-05T09:00:00:Z","depth":0,"parameterNumber":3,"parameterNumberName":"V-component_of_WINDS"},"data":[0,0,0,0,0,0,0,0,0,0,0,0,0,0,0,0,0,0,0,0,0,0,0,0,0,0,0,0,0,0,0,0,0,0,0,0,0,0,0,0,0,0,0,0,0,0,0,0,0,0,0,0,0,0,0,0,0,0,2.1017,2.1017,0,2.1032,2.1033,2.1033,2.1031,2.1031,2.1031,2.103,2.1049,2.105,2.105,0,0,0,0,0,0,0,0,0,0,0,0,0,2.099,2.099,2.1017,2.1017,2.1018,2.1032,2.1033,2.1033,2.1031,2.1031,2.1031,2.103,2.1049,2.105,2.105,0,0,0,0,0,0,0,0,0,0,0,0,0,2.1003,2.099,2.1017,2.1019,2.1019,2.1032,2.1033,2.1033,2.1031,2.1031,2.1031,2.103,2.1048,2.1049,2.1051,2.1065,0,0,2.1054,2.1054,0,0,0,0,0,0,0,0,2.1002,2.1004,2.1018,2.1018,2.1019,2.1029,2.103,2.1044,2.1031,2.1027,2.103,2.103,2.1043,2.1044,2.1048,2.1065,2.1066,2.1054,2.1055,2.1055,2.1055,0,0,0,0,0,0,0,2.1001,2.1003,2.1023,2.1018,2.1019,2.1019,2.1021,2.1032,2.1037,2.1027,2.1027,2.1029,2.1043,2.1047,2.1049,2.1066,2.1054,2.1055,2.1056,2.1056,2.1096,2.1096,0,0,0,0,0,0,2.1,2.1003,2.1023,2.1024,2.1009,2.102,2.1022,2.1026,2.1037,2.1038,2.1029,2.1028,2.1045,2.1047,2.1049,2.1066,2.1055,2.1056,2.1057,2.1096,2.1096,2.1097,0,0,0,0,0,0,2.0999,2.1002,2.1022,2.1013,2.1016,2.1021,2.1026,2.1027,2.1031,2.1038,2.1039,2.1032,2.1045,2.1048,2.1061,2.1067,2.1057,2.1058,2.1095,2.1096,2.1096,2.11,0,0,0,0,0,0,2.0998,2.1001,2.1006,2.1013,2.1016,2.1032,2.1027,2.1028,2.1032,2.1032,2.1041,2.1042,2.1045,2.1059,2.1062,2.1068,2.1058,2.1095,2.1095,2.1096,2.11,2.1101,2.1102,0,0,0,0,0,2.0997,2.1007,2.1006,2.1009,2.1022,2.1033,2.1035,2.1037,2.1033,2.1038,2.1043,2.1042,2.1066,2.106,2.1063,2.107,2.1094,2.1095,2.1096,2.1099,2.1101,2.1102,0,0,0,0,0,0,2.1002,2.1008,2.1007,2.1019,2.1025,2.1032,2.1039,2.1038,2.1046,2.1046,2.1049,2.1051,2.1064,2.1068,2.1062,2.1084,2.108,2.1081,2.1081,2.1082,2.1084,2.1082,2.1059,0,0,0,0,0,2.1004,2.1011,2.1017,2.1027,2.103,2.1034,2.1039,2.104,2.1046,2.1049,2.1055,2.1062,2.1071,2.1077,2.1086,2.11,2.1103,2.1107,2.1108,2.1109,2.111,2.1118,2.112,2.11,2.11,2.11,0,0,2.1009,2.1013,2.1018,2.1028,2.1033,2.1041,2.1036,2.1045,2.1051,2.1051,2.1063,2.1067,2.1076,2.1089,2.1096,2.1094,2.1116,2.111,2.1111,2.1112,2.112,2.1122,2.1123,2.11,2.11,2.11,0,0,2.1022,2.1026,2.1035,2.1039,2.1046,2.1049,2.1051,2.1058,2.106,2.1072,2.1072,2.108,2.1096,2.1102,2.1107,2.1122,2.1122,2.1125,2.1132,2.1139,2.1141,2.1143,2.1148,2.115,2.1126,2.1126,2.1126,0,2.1027,2.1039,2.104,2.1048,2.1053,2.1052,2.1061,2.1066,2.1076,2.108,2.1077,2.1096,2.1102,2.1117,2.1121,2.1125,2.1128,2.1124,2.1141,2.1142,2.1144,2.1149,2.1151,2.1127,2.1127,2.1127,2.1127,0,2.1045,2.1053,2.106,2.1068,2.1073,2.1082,2.1086,2.1091,2.1092,2.1095,2.1107,2.1114,2.1124,2.1128,2.1129,2.1143,2.1142,2.114,2.1135,2.1146,2.1151,2.1153,2.1127,2.1127,2.1127,2.1127,0,0,2.1062,2.107,2.1072,2.1076,2.1083,2.109,2.1099,2.1108,2.1113,2.112,2.1128,2.1141,2.1139,2.1145,2.1147,2.1154,2.1165,2.1151,2.1151,2.1153,2.1182,2.1183,2.1185,2.1165,2.1166,2.1166,2.1181,0,2.1075,2.1091,2.1092,2.1106,2.1113,2.1113,2.1121,2.1127,2.113,2.1138,2.1142,2.1151,2.1147,2.1151,2.1158,2.1162,2.1171,2.1161,2.1174,2.1174,2.1172,2.1188,2.119,2.1203,2.1183,2.1183,2.1184,0,2.1094,2.11,2.1114,2.112,2.1124,2.1131,2.1139,2.1146,2.1153,2.1155,2.1161,2.1162,2.1172,2.1167,2.1182,2.1175,2.118,2.1184,2.1184,2.1186,2.118,2.119,2.1208,2.121,2.1187,2.1186,2.1186,0,2.1104,2.1116,2.1127,2.113,2.1137,2.1142,2.1146,2.1152,2.1157,2.1165,2.1168,2.1177,2.1182,2.119,2.1193,2.1189,2.1208,2.1203,2.121,2.121,2.1215,2.1214,2.1234,2.1218,2.1218,2.1218,2.1218,0,2.112,2.1129,2.1131,2.1138,2.1148,2.115,2.116,2.1163,2.1169,2.1177,2.1177,2.1184,2.1188,2.1197,2.12,2.1211,2.1214,2.1216,2.1217,2.1216,2.1216,2.122,2.1219,2.1218,2.1218,2.1218,2.1218,0,2.1134,2.1136,2.1147,2.1152,2.1154,2.1161,2.1167,2.1173,2.1176,2.1186,2.1188,2.1193,2.1203,2.1207,2.1219,2.1221,2.1235,2.1235,2.1232,2.1232,2.124,2.1239,2.1262,2.1266,2.1247,2.1247,2.1248,0,2.1143,2.115,2.1156,2.1161,2.1164,2.1172,2.1177,2.1178,2.1184,2.1192,2.1198,2.1207,2.1215,2.123,2.1235,2.1245,2.1245,2.1253,2.1247,2.1246,2.1246,2.1245,2.1246,2.1254,2.1254,2.1254,2.1254,0,2.1161,2.1161,2.1168,2.1175,2.118,2.1186,2.1192,2.1196,2.1199,2.1205,2.1214,2.122,2.1232,2.1241,2.1251,2.1255,2.1256,2.1256,2.1258,2.1258,2.1256,2.1257,2.1235,2.1256,2.1256,2.1255,2.1255,2.1255,2.1173,2.1179,2.1184,2.1191,2.1196,2.1201,2.1207,2.121,2.1218,2.1227,2.1228,2.1238,2.1245,2.1257,2.1262,2.1271,2.1269,2.1272,2.1273,2.1274,2.1274,2.1254,2.1272,2.1272,2.1272,2.1272,2.1272,0,2.1191,2.1194,2.12,2.1208,2.1214,2.1212,2.1218,2.1224,2.1232,2.1238,2.1245,2.1256,2.1265,2.127,2.128,2.1285,2.1286,2.1288,2.1288,2.1289,2.1275,2.1272,2.1287,2.1287,2.1287,2.1287,2.1287,2.1287,2.1201,2.1211,2.1212,2.1224,2.1227,2.1236,2.1239,2.1245,2.1249,2.1261,2.1268,2.1271,2.1277,2.1286,2.1295,2.1296,2.13,2.1302,2.1304,2.1291,2.129,2.1288,2.1286,2.1303,2.1303,2.1317,2.1317,2.1317]}]]